Regional Weather Roundup
Issued by NWS Jackson, KY

Home | Current Version | Previous Version | Graphics & Text | Print | Product List | Glossary On
Versions: 1 2 3 4 5 6 7 8 9 10 11 12 13 14 15 16 17 18 19 20 21 22 23 24 25 26 27 28 29 30 31 32 33 34 35 36 37 38 39 40 41 42 43 44 45 46 47 48 49 50
000
ASUS43 KJKL 261410
RWRJKL

EAST KENTUCKY HOURLY WEATHER ROUNDUP
NATIONAL WEATHER SERVICE JACKSON KY
1000 AM EDT THU MAR 26 2015

NOTE: "FAIR" INDICATES FEW OR NO CLOUDS BELOW 12,000 FEET WITH
NO SIGNIFICANT WEATHER AND/OR OBSTRUCTIONS TO VISIBILITY.

* THESE REPORTS ARE NOT UNDER NWS QUALITY CONTROL AND MAY NOT
  REPORT WEATHER SUCH AS PRECIPITATION AND FOG.

KYZ079-080-083-085-087-088-110-112-115-119-120-261500
...EASTERN KENTUCKY...

CITY           SKY/WX    TMP DP  RH WIND       PRES   REMARKS
JACKSON        LGT RAIN  64  51  62 VRB6      29.83S
LONDON         CLOUDY    63  54  72 SW14G22   29.85F
SOMERSET*      CLOUDY    61  55  82 SW7       29.86F
MONTICELLO*    CLOUDY    65  59  81 SW10      29.88F
MIDDLESBORO*   CLOUDY    65  56  73 SW8       29.88F
HAZARD APT*    CLOUDY    66  54  63 SW15      29.84
BLACK MTN*       N/A     50  50 100 S9          N/A
PIKEVILLE APT* CLOUDY    64  50  59 S6        29.84F
BIG SANDY*     CLOUDY    65  51  62 SW8       29.82F
MOREHEAD APT*  CLOUDY    61  57  88 SW12G18   29.81S
$$

KYZ035-036-041-042-044-050-067-078-099-261500
...CENTRAL KENTUCKY...

CITY           SKY/WX    TMP DP  RH WIND       PRES   REMARKS
MT STERLING*   CLOUDY    61  57  88 W14G24    29.82R
FLEMING/MASON* LGT RAIN  46  46 100 NW6       29.83R
DANVILLE*      CLOUDY    59  55  88 SW10G17   29.84R
RICHMOND*      CLOUDY    61  55  82 SW15      29.82S
LEXINGTON      LGT RAIN  50  50 100 NW6       29.83S FOG
FRANKFORT      CLOUDY    48  45  89 NW9       29.84R
$$

KYZ091>093-OHZ055-061-077-WVZ005-015-034-035-042-261500
...SOUTHERN OHIO/WEST VIRGINIA...

CITY           SKY/WX    TMP DP  RH WIND       PRES   REMARKS
COVINGTON      RAIN      44  44 100 N9        29.86R FOG
COLUMBUS       LGT RAIN  44  43  96 NW9       29.84R FOG
DAYTON         LGT RAIN  43  41  93 N9        29.87S FOG
WILMINGTON     LGT RAIN  43  41  93 N13       29.83F FOG
HUNTINGTON     CLOUDY    61  53  75 S8        29.78F
CHARLESTON     PTSUNNY   68  50  52 S14G21    29.79F
PINEVILLE*     PTSUNNY   67  56  66 MISG      29.91F
BECKLEY        PTSUNNY   62  49  62 SW15G24   29.90S
BLUEFIELD      CLOUDY    63  48  58 SW15      29.93F
$$

VAZ002-007-008-TNZ017-027-036-066-071-261500
...SOUTHWEST VIRGINIA/EAST TENNESSEE...

CITY           SKY/WX    TMP DP  RH WIND       PRES   REMARKS
WISE*          PTSUNNY   61  48  63 SW15      29.92F
JONESVILLE*    CLOUDY    63  55  77 SW7       29.92F
ABINGDON*      PTSUNNY   64  55  70 W9        29.92F
BRISTOL        MOSUNNY   63  55  75 CALM      29.91F
KNOXVILLE      CLOUDY    66  55  67 S22G30    29.90F
OAK RIDGE      LGT RAIN  64  58  80 S7        29.91F
CROSSVILLE     CLOUDY    61  55  81 SW9       29.92F
NASHVILLE      PTSUNNY   61  58  90 W3        29.88S
$$

...KEY TO REMARKS...
VSB - VISIBILITY IN MILES
WCI - WIND CHILL INDEX
HX  - HEAT INDEX

$$



USA.gov is the U.S. government's official web portal to all federal, state and local government web resources and services.